Esquimalt Harbour, British Columbia

5:08 AM PDT on September 26, 2017 (GMT -0700)
Esquimalt Harbour

Weather History for CWPF - January, 2014

Change the Weather History Date:

Tuesday, January 7, 2014

  Actual Average (CYWH) Record (CYWH)
Temperature  
Mean Temperature 40 °F -  
Max Temperature 43 °F 44 °F 53 °F (2002)
Min Temperature 37 °F 38 °F 32 °F (2005)
Degree Days  
Heating Degree Days 25    
Moisture  
Dew Point 39 °F    
Average Humidity 93    
Maximum Humidity 99    
Minimum Humidity 89    
Precipitation  
Precipitation 0.00 in - - ()
Sea Level Pressure  
Sea Level Pressure 30.01 in    
Wind  
Wind Speed 6 mph ()    
Max Wind Speed 10 mph    
Max Gust Speed -    
Averages and records for this station are not official NWS values.
T = Trace of Precipitation, MM = Missing Value Source: Averaged Metar Reports

Daily Weather History Graph

Daily Weather History Graph

Search for Another Location

Airport or City:

Trip Planner

Search our weather history database for the weather conditions in past years. The results will help you decide how hot, cold, wet, or windy it might be!

Date:

Astronomy

Jan. 07, 2014 Rise Set
Actual Time 8:04 AM PST 4:36 PM PST
Civil Twilight 7:27 AM PST 5:12 PM PST
Nautical Twilight 6:48 AM PST 5:51 PM PST
Astronomical Twilight 6:10 AM PST 6:29 PM PST
Moon 11:19 AM PST (1/7) No Moon Set
Length of Visible Light 9h 44m
Length of Day
8h 32m
Waxing Crescent, 46% of the Moon is Illuminated
Jan 7
Waxing Crescent
Jan 7
First Quarter
Jan 15
Full
Jan 23
Last Quarter
Jan 30
New

Hourly Weather History & Observations

Time (PST) Temp. Windchill Dew Point Humidity Pressure Visibility Wind Dir Wind Speed Gust Speed Precip Events Conditions
12:00 AM 37.4 °F 34.9 °F 34.5 °F 89% 30.11 in - North 3.5 mph - N/A   Unknown
1:00 AM 37.8 °F 34.2 °F 35.4 °F 91% 30.10 in - North 4.6 mph - N/A   Unknown
2:00 AM 38.7 °F 35.2 °F 37.0 °F 94% 30.11 in - NNW 4.6 mph - N/A   Unknown
3:00 AM 39.0 °F 33.4 °F 37.4 °F 94% 30.08 in - North 8.1 mph - N/A   Unknown
4:00 AM 38.3 °F 33.2 °F 38.1 °F 99% 30.08 in - NNW 6.9 mph - N/A   Unknown
5:00 AM 39.9 °F 33.4 °F 37.9 °F 93% 30.05 in - North 10.4 mph - N/A   Unknown
6:00 AM 40.5 °F 35.8 °F 38.5 °F 93% 30.04 in - North 6.9 mph - N/A   Unknown
7:00 AM 40.6 °F 35.4 °F 38.7 °F 93% 30.03 in - North 8.1 mph - N/A   Unknown
8:00 AM 41.0 °F 35.2 °F 39.2 °F 93% 30.01 in - NNW 9.2 mph - N/A   Unknown
9:00 AM 40.6 °F 36.0 °F 38.8 °F 93% 30.01 in - North 6.9 mph - N/A   Unknown
10:00 AM 41.2 °F 36.6 °F 39.6 °F 94% 30.01 in - North 6.9 mph - N/A   Unknown
11:00 AM 42.1 °F 38.4 °F 40.5 °F 94% 30.01 in - NNW 5.8 mph - N/A   Unknown
12:00 PM 42.1 °F 36.6 °F 40.3 °F 93% 29.98 in - North 9.2 mph - N/A   Unknown
1:00 PM 42.3 °F 37.9 °F 40.3 °F 93% 29.97 in - North 6.9 mph - N/A   Unknown
2:00 PM 42.3 °F 36.8 °F 40.3 °F 93% 29.96 in - NNW 9.2 mph - N/A   Unknown
3:00 PM 42.6 °F 36.8 °F 40.6 °F 93% 29.96 in - North 10.4 mph - N/A   Unknown
4:00 PM 42.8 °F 38.6 °F 41.0 °F 93% 29.95 in - North 6.9 mph - N/A   Unknown
5:00 PM 43.2 °F 39.7 °F 41.2 °F 93% 29.96 in - NW 5.8 mph - N/A   Unknown
6:00 PM 43.0 °F 39.5 °F 41.2 °F 93% 29.96 in - North 5.8 mph - N/A   Unknown
7:00 PM 43.0 °F 40.3 °F 41.2 °F 93% 29.97 in - North 4.6 mph - N/A   Unknown
8:00 PM 42.8 °F 40.1 °F 41.2 °F 94% 29.96 in - North 4.6 mph - N/A   Unknown
9:00 PM 43.2 °F 40.5 °F 41.4 °F 93% 29.97 in - North 4.6 mph - N/A   Unknown
10:00 PM 43.0 °F 39.5 °F 41.5 °F 95% 29.98 in - NNW 5.8 mph - N/A   Unknown
11:00 PM 43.2 °F - 41.5 °F 94% 29.98 in - NW 2.3 mph - N/A   Unknown